Find Starlink 5876

NORAD ID: 56321 Int'l Des: 2023-058 Owner: SPXS Country: US Constellation: starlink operational
LEOCIRCULARRETROGRADESSO

Live Position

Loading 3D Globe...

About Starlink 5876

Description loading...

Upcoming Passes

Passes for default location (London). Set your location on the main map for personalized predictions.

Altitude History

Loading altitude history...

Two-Line Element Set

1 56321U 23058E 26127.00050650 -.00122440 00000-0 -86380-2 0 9991
2 56321 97.5277 128.6464 0002917 111.3990 248.7548 15.05603383166623
Epoch: May 7, 2026 • Age: 10 hours

Current Status

Altitude 561.5 km
Velocity 7.59 km/s
Sub-Earth Point 78.98°N, 72.17°E
Launch Date Apr 27, 2023
Age 3 years
Type internet

Technical Details

Classification Payload
Mass 300.00 kg
Dry Mass 260.00 kg
Total Mass 300.00 kg
Length 0.20 m
Diameter 2.80 m
Span 9.00 m
Shape Box + pan
Manufacturer SPXS
Bus Type Starlink
Phase Status In Orbit
Owner/State SPXS/US

Most Searched